IZ1REU Weather Reports


time (UTC)temp
C
wind
direction
speed
KPH
gust
KPH
rain 1hr
cm
rain 24hr
cm
rain mn
cm
humidity
%
barometer
mb
20260503171535 18 234 4.8 4.8 0.00 0.00 0.00 70 1016.9
20260503171035 18 96 0.0 0.0 0.00 0.00 0.00 71 1016.9
20260503170531 18 140 0.0 3.2 0.00 0.00 0.00 70 1017.0
20260503150537 20 114 4.8 11.3 0.00 0.00 0.00 66 1017.1
20260503131028 20 217 1.6 14.5 0.00 0.00 0.00 67 1018.6
20260503130529 20 123 6.4 14.5 0.00 0.00 0.00 66 1018.7
20260503110528 20 117 3.2 12.9 0.00 0.00 0.00 73 1019.5
20260503081528 19 140 1.6 9.7 0.00 0.00 0.00 60 1018.9
20260503081028 19 148 4.8 8.0 0.00 0.00 0.00 60 1018.9
20260503080531 19 182 0.0 9.7 0.00 0.00 0.00 61 1018.9
20260503072528 17 335 0.0 4.8 0.00 0.00 0.00 54 1018.9
20260503072028 17 335 1.6 3.2 0.00 0.00 0.00 54 1018.9
20260503071528 17 335 1.6 4.8 0.00 0.00 0.00 55 1018.9
20260503071034 16 302 1.6 4.8 0.00 0.00 0.00 55 1019.0
20260503070528 16 335 0.0 6.4 0.00 0.00 0.00 56 1019.0
20260503055034 12 310 1.6 6.4 0.00 0.00 0.00 64 1019.0
20260503054528 12 313 3.2 6.4 0.00 0.00 0.00 64 1019.0
20260503054031 12 327 4.8 8.0 0.00 0.00 0.00 64 1018.9
20260503053531 12 12 1.6 8.0 0.00 0.00 0.00 64 1018.8
20260503053028 12 315 6.4 8.0 0.00 0.00 0.00 64 1018.8
20260503052528 12 337 1.6 11.3 0.00 0.00 0.00 65 1018.8
20260503052031 12 317 4.8 11.3 0.00 0.00 0.00 65 1018.7
20260503051534 12 347 4.8 8.0 0.00 0.00 0.00 65 1018.6
20260503051034 12 347 3.2 6.4 0.00 0.00 0.00 65 1018.6
20260503050531 12 310 4.8 8.0 0.00 0.00 0.00 65 1018.6
20260503050028 12 26 0.0 8.0 0.00 0.00 0.00 65 1018.5
20260503045528 12 317 0.0 8.0 0.00 0.00 0.00 65 1018.5
20260503045031 12 327 8.0 9.7 0.00 0.00 0.00 65 1018.6
20260503044534 12 298 4.8 9.7 0.00 0.00 0.00 65 1018.5
20260503044028 12 29 4.8 8.0 0.00 0.00 0.00 65 1018.5
20260503043531 12 312 6.4 6.4 0.00 0.00 0.00 65 1018.5
20260503043028 12 289 0.0 4.8 0.00 0.00 0.00 65 1018.5
20260503042528 12 319 0.0 8.0 0.00 0.00 0.00 64 1018.6
20260503042031 12 302 0.0 8.0 0.00 0.00 0.00 64 1018.6
20260503041528 12 325 1.6 6.4 0.00 0.00 0.00 64 1018.5
20260503041028 12 309 0.0 6.4 0.00 0.00 0.00 64 1018.5
20260503040528 12 325 1.6 11.3 0.00 0.00 0.00 63 1018.5
20260503040028 12 330 4.8 11.3 0.00 0.00 0.00 63 1018.5
20260503035528 12 299 4.8 8.0 0.00 0.00 0.00 63 1018.5
20260503035031 12 319 6.4 9.7 0.00 0.00 0.00 63 1018.5
20260503034528 12 311 1.6 9.7 0.00 0.00 0.00 64 1018.5
20260503034028 12 331 4.8 14.5 0.00 0.00 0.00 64 1018.5
20260503033528 12 308 11.3 12.9 0.00 0.00 0.00 64 1018.5
20260503033031 12 311 6.4 14.5 0.00 0.00 0.00 64 1018.5
20260503032534 12 336 4.8 9.7 0.00 0.00 0.00 65 1018.5
20260503032031 12 315 8.0 8.0 0.00 0.00 0.00 64 1018.5
20260503031528 12 306 1.6 11.3 0.00 0.00 0.00 64 1018.6
20260503031028 12 340 8.0 11.3 0.00 0.00 0.00 64 1018.7
20260503030528 12 315 6.4 9.7 0.00 0.00 0.00 64 1018.7
20260503030031 12 325 8.0 11.3 0.00 0.00 0.00 64 1018.7
20260503025528 12 322 1.6 9.7 0.00 0.00 0.00 64 1018.7
20260503025034 12 304 3.2 6.4 0.00 0.00 0.00 63 1018.8
20260503024528 12 316 1.6 8.0 0.00 0.00 0.00 63 1018.8
20260503024031 12 51 0.0 6.4 0.00 0.00 0.00 63 1018.8
20260503023528 12 348 3.2 9.7 0.00 0.00 0.00 62 1018.9
20260503023028 12 30 6.4 11.3 0.00 0.00 0.00 63 1019.0
20260503022531 12 329 8.0 12.9 0.00 0.00 0.00 63 1018.9
20260503022032 12 313 4.8 12.9 0.00 0.00 0.00 63 1018.9
20260503021529 12 327 4.8 11.3 0.00 0.00 0.00 63 1018.9
20260503021032 12 321 4.8 11.3 0.00 0.00 0.00 63 1018.9
20260503020528 12 323 8.0 11.3 0.00 0.00 0.00 63 1018.8
20260503020028 12 310 4.8 12.9 0.00 0.00 0.00 61 1018.8
20260503015528 12 317 3.2 9.7 0.00 0.00 0.00 61 1018.8
20260503015031 12 325 1.6 6.4 0.00 0.00 0.00 61 1018.8
20260503014528 12 328 4.8 9.7 0.00 0.00 0.00 61 1018.8
20260503014028 12 334 1.6 8.0 0.00 0.00 0.00 61 1018.8
20260503013528 12 289 1.6 8.0 0.00 0.00 0.00 61 1018.9
20260503013034 12 0 3.2 12.9 0.00 0.00 0.00 61 1019.0
20260503012528 12 324 4.8 12.9 0.00 0.00 0.00 61 1019.1
20260503012034 12 327 1.6 12.9 0.00 0.00 0.00 61 1019.1
20260503011528 12 313 4.8 11.3 0.00 0.00 0.00 61 1019.2
20260503011037 12 340 4.8 12.9 0.00 0.00 0.00 61 1019.1
20260503010528 12 284 4.8 9.7 0.00 0.00 0.00 60 1019.1
20260503010034 12 33 3.2 12.9 0.00 0.00 0.00 60 1019.1
20260503005531 13 302 3.2 12.9 0.00 0.00 0.00 60 1019.2
20260503005031 13 333 4.8 12.9 0.00 0.00 0.00 60 1019.2
20260503004537 13 295 6.4 11.3 0.00 0.00 0.00 60 1019.2
20260503004034 13 275 4.8 9.7 0.00 0.00 0.00 60 1019.3
20260503003534 13 314 4.8 9.7 0.00 0.00 0.00 60 1019.3
20260503003037 13 296 6.4 9.7 0.00 0.00 0.00 60 1019.3
20260503002531 13 302 3.2 9.7 0.00 0.00 0.00 59 1019.4
20260503002034 13 303 4.8 11.3 0.00 0.00 0.00 59 1019.5
20260503001531 13 331 1.6 14.5 0.00 0.00 0.00 59 1019.5
20260503001028 13 310 6.4 11.3 0.00 0.00 0.00 59 1019.5
20260503000531 13 327 4.8 11.3 0.00 0.00 0.00 59 1019.5
20260503000031 13 314 3.2 12.9 0.00 0.00 0.00 59 1019.6
20260502235534 13 306 4.8 12.9 0.00 0.00 0.00 59 1019.6
20260502235034 13 336 6.4 12.9 0.00 0.00 0.00 60 1019.6
20260502234531 13 337 3.2 14.5 0.00 0.00 0.00 60 1019.6
20260502234034 13 306 3.2 11.3 0.00 0.00 0.00 59 1019.6
20260502233528 13 322 3.2 12.9 0.00 0.00 0.00 59 1019.7
20260502233028 13 310 3.2 8.0 0.00 0.00 0.00 59 1019.7
20260502232534 13 302 4.8 9.7 0.00 0.00 0.00 59 1019.8
20260502232028 14 298 6.4 9.7 0.00 0.00 0.00 58 1019.8
20260502231528 14 300 6.4 11.3 0.00 0.00 0.00 58 1019.9
20260502231028 14 310 4.8 6.4 0.00 0.00 0.00 58 1019.9
20260502230528 14 310 3.2 4.8 0.00 0.00 0.00 57 1020.0
20260502230028 14 325 1.6 8.0 0.00 0.00 0.00 57 1020.0
20260502225528 14 5 1.6 11.3 0.00 0.00 0.00 57 1020.0
20260502225034 14 48 0.0 8.0 0.00 0.00 0.00 57 1020.1
20260502224531 14 329 4.8 8.0 0.00 0.00 0.00 57 1020.0
20260502224031 14 292 4.8 11.3 0.00 0.00 0.00 58 1020.0
20260502223531 14 315 1.6 12.9 0.00 0.00 0.00 58 1020.0
20260502223028 14 323 4.8 12.9 0.00 0.00 0.00 59 1020.0
20260502222531 14 322 4.8 8.0 0.00 0.00 0.00 59 1020.0
20260502222028 14 298 4.8 8.0 0.00 0.00 0.00 58 1020.1
20260502221528 14 301 3.2 11.3 0.00 0.00 0.00 58 1020.2
20260502221028 14 296 3.2 8.0 0.00 0.00 0.00 58 1020.2
20260502220528 14 337 1.6 6.4 0.00 0.00 0.00 58 1020.2
20260502220031 15 311 4.8 11.3 0.00 0.00 0.00 58 1020.3
20260502215531 15 305 4.8 6.4 0.00 0.00 0.00 57 1020.4
20260502215034 15 315 6.4 6.4 0.00 0.00 0.00 57 1020.4
20260502214528 15 317 6.4 9.7 0.00 0.00 0.00 57 1020.4
20260502214028 15 313 3.2 8.0 0.00 0.00 0.00 57 1020.4
20260502213531 15 304 3.2 8.0 0.00 0.00 0.00 56 1020.4
20260502213028 15 317 4.8 6.4 0.00 0.00 0.00 56 1020.4
20260502212528 15 313 6.4 8.0 0.00 0.00 0.00 56 1020.4
20260502212034 15 309 4.8 6.4 0.00 0.00 0.00 56 1020.5
20260502211528 15 326 3.2 8.0 0.00 0.00 0.00 56 1020.4
20260502211028 15 322 3.2 6.4 0.00 0.00 0.00 56 1020.5
20260502210528 15 315 3.2 9.7 0.00 0.00 0.00 56 1020.6
20260502210036 15 298 3.2 8.0 0.00 0.00 0.00 56 1020.5
20260502205537 15 17 6.4 8.0 0.00 0.00 0.00 56 1020.5
20260502205034 15 309 4.8 8.0 0.00 0.00 0.00 56 1020.5
20260502204531 15 292 1.6 11.3 0.00 0.00 0.00 55 1020.5
20260502204028 15 312 4.8 9.7 0.00 0.00 0.00 55 1020.4
20260502203531 15 325 4.8 8.0 0.00 0.00 0.00 54 1020.5
20260502203034 16 315 3.2 9.7 0.00 0.00 0.00 53 1020.5
20260502202528 16 321 4.8 8.0 0.00 0.00 0.00 52 1020.5
20260502202031 16 313 3.2 6.4 0.00 0.00 0.00 52 1020.6
20260502201534 16 311 3.2 6.4 0.00 0.00 0.00 51 1020.6
20260502201029 16 343 4.8 8.0 0.00 0.00 0.00 51 1020.6
20260502200528 16 299 4.8 8.0 0.00 0.00 0.00 51 1020.5
20260502200037 16 315 4.8 9.7 0.00 0.00 0.00 51 1020.5
20260502195528 16 316 3.2 4.8 0.00 0.00 0.00 50 1020.4
20260502195028 16 303 3.2 8.0 0.00 0.00 0.00 50 1020.4
20260502194528 16 307 3.2 8.0 0.00 0.00 0.00 49 1020.3
20260502194028 17 330 6.4 8.0 0.00 0.00 0.00 49 1020.2
20260502193528 17 291 3.2 6.4 0.00 0.00 0.00 48 1020.2
20260502193034 17 306 4.8 8.0 0.00 0.00 0.00 48 1020.2
20260502192531 17 294 3.2 6.4 0.00 0.00 0.00 47 1020.2
20260502192028 17 296 3.2 4.8 0.00 0.00 0.00 47 1020.2
20260502191534 17 304 4.8 6.4 0.00 0.00 0.00 47 1020.1
20260502191034 17 302 1.6 6.4 0.00 0.00 0.00 46 1020.2
20260502190528 18 303 1.6 4.8 0.00 0.00 0.00 46 1020.0
20260502190028 18 303 1.6 4.8 0.00 0.00 0.00 45 1020.1
20260502185528 18 304 4.8 6.4 0.00 0.00 0.00 45 1020.0
20260502185028 18 265 0.0 0.0 0.00 0.00 0.00 45 1020.0
20260502184531 18 265 0.0 0.0 0.00 0.00 0.00 45 1020.0
20260502184031 18 265 0.0 0.0 0.00 0.00 0.00 46 1020.0
20260502183534 18 265 0.0 0.0 0.00 0.00 0.00 44 1019.9
20260502183028 18 265 0.0 0.0 0.00 0.00 0.00 44 1019.9
20260502182528 18 265 0.0 0.0 0.00 0.00 0.00 43 1020.0
20260502182028 18 265 0.0 1.6 0.00 0.00 0.00 44 1020.0
20260502181531 18 265 0.0 3.2 0.00 0.00 0.00 44 1020.0
20260502181034 18 265 3.2 6.4 0.00 0.00 0.00 43 1020.1
20260502180534 18 192 1.6 6.4 0.00 0.00 0.00 40 1020.1